Regional Weather Roundup
Issued by NWS

Home | Current Version | Previous Version | Graphics & Text | Print | Product List | Glossary On
Versions: 1 2 3 4 5 6 7 8 9 10 11 12 13 14 15 16 17 18 19 20 21 22 23 24 25 26 27 28 29 30 31 32 33 34 35 36 37 38 39 40 41 42 43 44 45 46 47 48 49 50
000
ASUS45 KPSR 051410
RWRAZ

ARIZONA HOURLY REGIONAL WEATHER ROUNDUP
NATIONAL WEATHER SERVICE PHOENIX AZ
700 AM MST MON DEC 05 2016

NOTE: FAIR INDICATES FEW OR NO CLOUDS BELOW 12,000 FEET WITH NO
SIGNIFICANT WEATHER AND/OR OBSTRUCTIONS TO VISIBILITY.

AZZ001>003-036-051500-
NORTHWEST ARIZONA

CITY           SKY/WX    TMP DP  RH WIND       PRES   REMARKS
BULLHEAD CITY  PTCLDY    46  25  42 CALM      29.92S
KINGMAN        PTCLDY    38  11  32 SE7       29.91S WCI  33
$$

AZZ004>008-015-016-018-051500-
NORTH CENTRAL ARIZONA

CITY           SKY/WX    TMP DP  RH WIND       PRES   REMARKS
GRAND CANYON   PTCLDY    20  17  88 NE3       29.96S
PRESCOTT       PTCLDY    33  16  49 NE3       29.96S
FLAGSTAFF      CLEAR     22  14  71 CALM      29.97F
PAYSON         CLEAR     34  16  47 CALM      30.01R
PAGE           PTCLDY    30  17  58 S5        29.89S WCI  25
$$

AZZ009>014-017-051500-
NORTHEAST ARIZONA

CITY           SKY/WX    TMP DP  RH WIND       PRES   REMARKS
WINSLOW        PTCLDY    25  17  72 SE3       29.94R
SAINT JOHNS    PTCLDY    21  14  74 CALM      29.93S
WINDOW ROCK    CLEAR     16  11  80 CALM      29.95R
SHOW LOW       PTCLDY    37   9  30 S17G24    29.95F WCI  28
$$

AZZ023-051500-
GREATER PHOENIX AREA

CITY           SKY/WX    TMP DP  RH WIND       PRES   REMARKS
PHOENIX        MOCLDY    45  27  49 E9        29.92R
BUCKEYE        CLEAR     37  28  70 CALM      29.93S
GLENDALE       PTCLDY    39  30  70 CALM      29.93S
LUKE AFB       PTCLDY    39  30  69 NW8       29.92R WCI  34
DEER VALLEY    PTCLDY    43  22  43 E5        29.91R
SCOTTSDALE     PTCLDY    43  29  57 NE5       29.94R
MESA-FALCON    CLEAR    N/A N/A N/A N9        29.92R
MESA-GATEWAY   CLEAR     37  25  60 SE5       29.95R WCI  34
CHANDLER       CLEAR     39  27  60 CALM      29.95R
$$

AZZ027-028-051500-
SOUTHWEST MARICOPA COUNTY AND PINAL COUNTY

CITY           SKY/WX    TMP DP  RH WIND       PRES   REMARKS
CASA GRANDE    NOT AVBL
GILA BEND      CLEAR     43  12  28 MISG      29.90
$$

AZZ503-504-507>509-051500-
SOUTHEAST ARIZONA

CITY           SKY/WX    TMP DP  RH WIND       PRES   REMARKS
TUCSON         CLEAR     43  23  45 SE8       29.97S
DAVIS-MONTHAN  CLEAR     42  22  45 SE7       29.96S
RYAN FIELD     CLEAR     36  23  60 SE7       29.97S WCI  30
NOGALES        CLEAR     32  23  69 CALM      29.99S
SIERRA VISTA   CLEAR     38  18  44 CALM      29.99F
DOUGLAS        PTCLDY    29  25  85 E8        30.00S WCI  21
SAFFORD        CLEAR     29  23  78 E3        29.97R
$$

AZZ020-021-025-026-031-051500-
SOUTHWEST ARIZONA

CITY           SKY/WX    TMP DP  RH WIND       PRES   REMARKS
YUMA           PTCLDY    45  21  38 NE3       29.88R
$$

CAZ031-033-041-043-047-048-061-051500-
SOUTHERN CALIFORNIA

CITY           SKY/WX    TMP DP  RH WIND       PRES   REMARKS
DOWNTOWN L.A.  PTCLDY    47  40  76 CALM      29.95R
L.A. AIRPORT   FOG       53  53 100 NE5       29.96R VSB 1/16
SAN DIEGO      PTCLDY    52  50  93 CALM      29.97R
BURBANK        CLEAR     43  30  60 N3        29.95R
ONTARIO        MOCLDY    46  33  60 CALM      29.94S
RIVERSIDE      PTCLDY    45  34  65 NE7       29.95R
PALM SPRINGS   CLEAR     49  27  42 E5        29.88R
EL CENTRO NAS  PTCLDY    37  14  38 W3        29.88R
IMPERIAL       CLEAR     42  24  49 CALM      29.86R
BLYTHE         PTCLDY    40  18  41 E5        29.88S
NEEDLES        PTCLDY    44  17  33 W3        29.91S
$$

NVZ020-UTZ003-051500-
SOUTHERN NEVADA-UTAH

CITY           SKY/WX    TMP DP  RH WIND       PRES   REMARKS
LAS VEGAS      PTCLDY    42  15  33 W5        29.91R
SALT LAKE CITY CLOUDY    32  13  45 NE7       30.00R WCI  26
$$

NMZ009-TXZ055-051500-
NEW MEXICO-WEST TEXAS

CITY           SKY/WX    TMP DP  RH WIND       PRES   REMARKS
ALBUQUERQUE    CLOUDY    28  14  55 W3        29.94R
EL PASO        CLEAR     33  29  85 CALM      29.94R
$$


........................KEY........................
SKY/WX - SKY CONDITION/WEATHER
TMP    - TEMPERATURE IN FAHRENHEIT
DP     - DEW POINT IN FAHRENHEIT
RH     - RELATIVE HUMIDITY IN PERCENT
WIND   - DIRECTION AND SPEED IN MILES PER HOUR (MPH)
VRB    - VARIABLE WIND DIRECTION
PRES   - MEAN SEA LEVEL PRESSURE IN INCHES OF MERCURY
         F - FALLING PRESSURE   R - RISING PRESSURE
         S - STEADY PRESSURE
VSB    - VISIBILITY IN MILES
HX     - HEAT INDEX IN FAHRENHEIT
WCI    - WIND CHILL INDEX IN FAHRENHEIT
TC     - TEMPERATURE IN CELSIUS WHICH IS ALSO KNOWN AS
         TEMPERATURE IN CENTIGRADE
AFB    - AIR FORCE BASE
         LUKE AFB IS LUKE AIR FORCE BASE
         DAVIS-MONTHAN IS DAVIS-MONTHAN AIR FORCE BASE
NAS    - NAVAL AIR STATION
         EL CENTRO NAS IS EL CENTRO NAVAL AIR STATION
N/A    - NOT AVAILABLE




USA.gov is the U.S. government's official web portal to all federal, state and local government web resources and services.